Погода Ливны

Погода Ливны : погода сейчас, прогноз погоды и архив. Всё, что Вы хотите узнать о погоде Ливны!

Хотите узнать прогноз погоды Ливны? Тогда Вам сюда: Погода Ливны

Поиск расширенной информации на нашем сайте:

Другие новости

Новости СМИ2

Главная страница сайта

Новости сайта

03.07.2017

Напоминаем, что на нашем специализированном сайте Метеоцентр.Азия вы можете получить высокодетализированные автоматические прогнозы погоды по пунктам России, СНГ и мира в авиационном формате (включающие направление и скорость ветра, видимость, явления погоды, количество и форму облачности, нижнюю и верхнюю границу облачности).

Рекомендуем: биолан

Погода Ливны - сегодня

Время (UTC), дата Ветер
(°,м/с) 
Видим.   Явления Облачность Т
(°С)
Тd
(°С)
f(%) Тe
(°С)
Pmin
(гПа)
dP
(гПа)
Po
(мм)
O2
(г/м3)
Тmin Tmax R s Состояние
почвы
21 15.07.18 010 (С) 10 км  в посл. час гроза{ливн. осадки}  10/10 600 м кучево-дожд. 
[Cb calv]
+19.6 +18 90 +36  1005.5  -0.2  739  274           
09 16.07.18 100 (В) 10 км    10/10 600 м 
[Sc]
+25.7 +17.2 59 +39  1004.6  738  268           
18 16.07.18 070 (В) 2{12}  10 км  слаб. ливневой дождь{гроза}  10/10 600 м кучево-дожд. 
[Cb calv]
+19.7 +18.1 90 +36  1003.1  0.8  737  273    +26.6     
21 16.07.18 070 (В) 10 км  {ливн. осадки}  9/9 600 м кучево-дожд. 
[Cb calv]
+19.7 +17.4 87 +35  1003.4  0.2  737  273           
09 17.07.18 090 (В) 10 км  {ливн. осадки}  9/9 600 м кучево-дожд. 
[Cb calv]
+21.8 +17.3 76 +35  1000.7  0.2  735  270           
15 17.07.18 210 (ЮЗ) 10 км    8/4 600 м кучево-дожд., верхняя 
[Cb calv|Ci fib]
+24.5 +18.2 68 +40  1000  -0.6  735  268      0.4     
21 17.07.18 020 (С) 10 км  слаб. ливневой дождь  10/10 600 м кучево-дожд. 
[Cb calv]
+19 +17.4 90 +34  999.5  0.2  734  273           
09 18.07.18 030 (СВ) 10 км    10/10 300 м кучево-дожд. 
[Cb calv]
+20.8 +17.7 82 +35  998.3  -0.2  733  271           
15 18.07.18 350 (С) 20000 м    9/6 600 м кучево-дожд., верхняя 
[Cb calv|Ci fib]
+24.7 +19.1 71 +42  997.5  -0.1  733  266      0.0     
21 18.07.18 310 (СЗ) 10 км  слаб. ливневой дождь  10/10 300 м кучево-дожд. 
[Cb calv]
+19.2 +18.1 93 +35  998.4  -0.2  733  272           
09 19.07.18 340 (С) 10 км  слаб. ливневой дождь  10/10 300 м кучево-дожд. 
[Cb calv]
+20.4 +18.5 89 +37  999.1  0.4  734  271           
15 19.07.18 210 (ЮЗ) 10 км    9/5 600 м кучево-дожд., верхняя 
[Cb calv|Cc]
+24.5 +18.2 68 +40  999.9  0.6  735  268         
21 19.07.18 170 (Ю) 10 км    3/3 600 м 
[Sc]
+20.3 +18.5 89 +36  1001.2  0.3  736  272           
00 20.07.18 160 (Ю) 10 км    9/9 600 м 
[Sc]
+18.5 +17.4 93 +33  1001.7  0.4  736  274           
09 20.07.18 170 (Ю) 10 км    9/8 600 м кучево-дожд., средняя, верхняя 
[Cb calv|Ac trans|Cc]
+25.7 +18.1 63 +41  1002.3  0.1  737  267           
21 20.07.18 040 (СВ) 10 км    8/6 600 м верхняя 
[Sc|Cs]
+18.9 +17.6 92 +34  1004.1  0.1  738  274           
00 21.07.18 тихо ()   10 км    10/10 600 м 
[Sc]
+18.9 +17.6 92 +33  1004.1  738  274           
09 21.07.18 350 (С) 10 км  {ливн. осадки}  10/10 600 м кучево-дожд. 
[Cb calv]
+24.1 +19.3 75 +42  1004.6  0.2  738  269           
21 21.07.18 330 (СЗ) 4000 м    8/6 600 м кучево-дожд., верхняя 
[Cb calv|Cc]
+19 +17.7 92 +35  1004.9  -0.2  738  274           
00 22.07.18 360 (С) 10 км    6/4 600 м кучево-дожд., верхняя 
[Cb calv|Ci fib]
+18.1 +17.1 94 +33  1004.7  -0.2  738  275           
09 22.07.18 090 (В) 20000 м  {ливн. осадки}  9/8 300 м кучево-дожд., средняя 
[Cb calv|Ac trans]
+23.5 +19.8 80 +42  1005.2  0.3  739  269           
15 22.07.18 080 (В) 20000 м    9/8 600 м кучево-дожд., верхняя 
[Cb calv|Ci fib]
+24.6 +19.1 71 +42  1004.1  -0.6  738  268      20     
21 22.07.18 070 (В) 10 км    9/9 600 м кучево-дожд. 
[Cb calv]
+20 +18.2 89 +35  1005.8  0.4  739  273           
00 23.07.18 090 (В) 10 км    10/10 600 м 
[Sc]
+19.5 +17.9 90 +36  1005.7  -0.2  739  274           
09 23.07.18 090 (В) 10 км    10/10 600 м кучево-дожд. 
[Cb calv]
+21.4 +18 81 +36  1006.1  0.4  739  272           
Время (UTC), дата Ветер
(°,м/с) 
Видим.   Явления Облачность Т
(°С)
Тd
(°С)
f(%) Тe
(°С)
Pmin
(гПа)
dP
(гПа)
Po
(мм)
O2
(г/м3)
Тmin Tmax R s Состояние
почвы

Для получения пояснительной информации подведите курсор к названию столбца.

ПОГОДА Ливны - архив

Всё, что Вы хотите узнать о погоде Ливны - удобно и подробно!

Выберите нужную дату (начиная с 1 января 2015* года) и нажмите кнопку "Найти".
Будут отображены архивные сводки погоды по пункту Ливны, начиная с указанной даты.


Отображать данные в формате CSV (для использования в таблицах Excel)


Внимание! Наш архив погоды предназначен исключительно для личного некоммерческого использования в познавательных целях. Если Вам необходимы официальные справки о состоянии погоды (для производственных, юридических, коммерческих и т.п. целей), обращайтесь в органы Росгидромета.

*Примечание: данная дата относится к архиву по метеостанциям СССР (Россия, СНГ, Балтия).
Архив по метеостанциям Зарубежной Европы и Азии (кроме Китая) хранится 10 дней, по другим регионам земного шара (Китай, Африка, Америка, Австралия, Океания) - 1 день.

Ливны - район местоположения метеостанции


Название, широта, долгота, высота метеостанции:
Ливны 52.4°ш. 37.6°д. 179 м над ур. моря [Российская Федерация]

Дополнительная информация

В oтличие oт бoльшинства пoгoдных сайтoв мы публикуем пoдрoбную метеoинфoрмацию в детальнoм прoфессиoнальнoм фoрмате.

Характеристики температуры и влажнoсти вoздуха измеряются на высoте 2 м в тени вдали oт зданий и деревьев.
Скoрoсть ветра измеряется на высoте 10 м (на урoвне рoста челoвека скoрoсть ветра ниже в 1.5-2 раза). Если метеoстанция нахoдится в гoрoде или в лесу, тo скoрoсть ветра занижена на 2-4 м/с пo сравнению с oткрытым местoм. Скoрoсть ветра над акватoриями крупных рек и oзёр, а также на вершинах хoлмoв на 2-5 м/с выше, чем в oбычных услoвиях.
Атмoсфернoе давление в разных тoчках местнoсти мoжет значительнo oтличаться oт давления на метеoстанции, в зависимoсти oт услoвий рельефа (при пoдъёме на 10 м давление пoнижается примернo на 1 мм рт.ст.).